| time (UTC) | temp C | wind direction | speed KPH | gust KPH | rain 1hr cm | rain 24hr cm | rain mn cm | humidity % | barometer mb |
| 20260505070008 | 7 | 249 | 9.7 | 22.5 | 0.00 | 0.05 | 0.00 | 83 | 1008.1 |
| 20260505064504 | 7 | 256 | 8.0 | 27.4 | 0.00 | 0.08 | 0.00 | 82 | 1007.9 |
| 20260505063004 | 7 | 256 | 9.7 | 24.1 | 0.00 | 0.08 | 0.00 | 82 | 1007.6 |
| 20260505061603 | 7 | 233 | 9.7 | 29.0 | 0.00 | 0.08 | 0.00 | 82 | 1007.3 |
| 20260505060056 | 7 | 264 | 8.0 | 22.5 | 0.00 | 0.08 | 0.00 | 82 | 1007.2 |
| 20260505054556 | 7 | 251 | 9.7 | 19.3 | 0.00 | 0.10 | 0.00 | 81 | 1006.8 |
| 20260505053049 | 8 | 256 | 8.0 | 19.3 | 0.00 | 0.10 | 0.00 | 81 | 1006.6 |
| 20260505051547 | 8 | 263 | 1.6 | 12.9 | 0.00 | 0.10 | 0.00 | 81 | 1006.3 |
| 20260505050119 | 8 | 243 | 3.2 | 14.5 | 0.00 | 0.10 | 0.00 | 80 | 1006.3 |
| 20260505041549 | 8 | 244 | 1.6 | 12.9 | 0.00 | 0.15 | 0.00 | 78 | 1005.8 |
| 20260505040039 | 8 | 256 | 1.6 | 8.0 | 0.00 | 0.15 | 0.00 | 78 | 1005.7 |
| 20260505034530 | 8 | 254 | 1.6 | 11.3 | 0.00 | 0.15 | 0.00 | 77 | 1005.3 |
| 20260505033027 | 9 | 282 | 4.8 | 19.3 | 0.00 | 0.15 | 0.00 | 76 | 1005.0 |
| 20260505031524 | 9 | 275 | 9.7 | 22.5 | 0.00 | 0.15 | 0.00 | 75 | 1004.7 |
| 20260505030021 | 10 | 261 | 12.9 | 29.0 | 0.00 | 0.15 | 0.00 | 74 | 1004.5 |
| 20260505024522 | 10 | 266 | 9.7 | 20.9 | 0.00 | 0.15 | 0.15 | 73 | 1004.4 |
| 20260505023018 | 10 | 259 | 12.9 | 24.1 | 0.00 | 0.15 | 0.15 | 72 | 1004.1 |
| 20260505021518 | 10 | 250 | 9.7 | 37.0 | 0.00 | 0.15 | 0.15 | 71 | 1003.9 |
| 20260505020018 | 10 | 248 | 6.4 | 30.6 | 0.00 | 0.15 | 0.15 | 71 | 1003.8 |
| 20260505014513 | 10 | 254 | 11.3 | 27.4 | 0.00 | 0.18 | 0.15 | 71 | 1003.8 |
| 20260505013016 | 10 | 233 | 6.4 | 27.4 | 0.00 | 0.18 | 0.15 | 71 | 1003.8 |
| 20260505011517 | 10 | 245 | 11.3 | 33.8 | 0.00 | 0.18 | 0.15 | 70 | 1003.6 |
| 20260505010011 | 10 | 243 | 14.5 | 32.2 | 0.00 | 0.18 | 0.15 | 67 | 1003.6 |
| 20260505004510 | 10 | 265 | 11.3 | 25.7 | 0.00 | 0.33 | 0.15 | 64 | 1003.7 |
| 20260505003008 | 10 | 277 | 11.3 | 25.7 | 0.00 | 0.33 | 0.15 | 63 | 1003.4 |
| 20260505001509 | 11 | 262 | 14.5 | 35.4 | 0.00 | 0.33 | 0.15 | 59 | 1003.2 |
| 20260505000010 | 10 | 254 | 9.7 | 24.1 | 0.00 | 0.33 | 0.15 | 59 | 1003.2 |
| 20260504234504 | 10 | 246 | 4.8 | 17.7 | 0.00 | 0.86 | 0.15 | 61 | 1002.6 |
| 20260504233003 | 10 | 232 | 3.2 | 17.7 | 0.00 | 0.86 | 0.15 | 61 | 1002.5 |
| 20260504231501 | 10 | 232 | 4.8 | 17.7 | 0.00 | 0.86 | 0.15 | 59 | 1002.3 |
| 20260504230104 | 10 | 220 | 6.4 | 17.7 | 0.00 | 0.86 | 0.15 | 57 | 1002.2 |
| 20260504224610 | 11 | 252 | 8.0 | 16.1 | 0.00 | 1.07 | 0.15 | 56 | 1002.2 |
| 20260504223056 | 11 | 231 | 6.4 | 22.5 | 0.00 | 1.07 | 0.15 | 56 | 1002.0 |
| 20260504221555 | 11 | 252 | 12.9 | 22.5 | 0.00 | 1.07 | 0.15 | 54 | 1001.6 |
| 20260504220058 | 11 | 208 | 8.0 | 35.4 | 0.00 | 1.07 | 0.15 | 53 | 1001.6 |
| 20260504214552 | 12 | 256 | 12.9 | 29.0 | 0.00 | 1.65 | 0.15 | 53 | 1001.5 |
| 20260504213119 | 12 | 258 | 16.1 | 30.6 | 0.00 | 1.65 | 0.15 | 52 | 1001.4 |
| 20260504211549 | 11 | 273 | 24.1 | 45.1 | 0.00 | 1.65 | 0.15 | 53 | 1001.1 |
| 20260504210047 | 11 | 264 | 24.1 | 41.8 | 0.00 | 1.65 | 0.15 | 55 | 1001.0 |
| 20260504204545 | 11 | 285 | 19.3 | 49.9 | 0.00 | 1.70 | 0.15 | 57 | 1000.7 |
| 20260504203042 | 11 | 241 | 16.1 | 43.5 | 0.00 | 1.70 | 0.15 | 62 | 1000.4 |
| 20260504201538 | 11 | 267 | 16.1 | 43.5 | 0.00 | 1.70 | 0.15 | 65 | 1000.0 |
| 20260504200035 | 11 | 235 | 11.3 | 40.2 | 0.00 | 1.70 | 0.15 | 67 | 999.8 |
| 20260504194531 | 11 | 250 | 19.3 | 40.2 | 0.00 | 1.75 | 0.15 | 69 | 999.3 |
| 20260504193030 | 10 | 264 | 16.1 | 35.4 | 0.00 | 1.75 | 0.15 | 73 | 999.3 |
| 20260504191524 | 10 | 277 | 19.3 | 37.0 | 0.00 | 1.75 | 0.15 | 75 | 999.1 |
| 20260504190020 | 9 | 284 | 19.3 | 37.0 | 0.00 | 1.75 | 0.15 | 78 | 998.8 |
| 20260504184518 | 8 | 268 | 19.3 | 41.8 | 0.00 | 1.83 | 0.15 | 79 | 998.7 |
| 20260504183021 | 8 | 242 | 16.1 | 33.8 | 0.00 | 1.83 | 0.15 | 81 | 998.4 |
| 20260504181511 | 8 | 275 | 17.7 | 33.8 | 0.00 | 1.83 | 0.15 | 83 | 998.1 |
| 20260504180010 | 7 | 245 | 12.9 | 38.6 | 0.00 | 1.83 | 0.15 | 84 | 998.1 |
| 20260504174506 | 7 | 271 | 19.3 | 40.2 | 0.00 | 1.83 | 0.15 | 85 | 997.8 |
| 20260504173003 | 7 | 291 | 17.7 | 37.0 | 0.00 | 1.83 | 0.15 | 87 | 997.5 |
| 20260504171601 | 6 | 285 | 22.5 | 38.6 | 0.00 | 1.83 | 0.15 | 87 | 997.3 |
| 20260504110111 | 3 | 252 | 16.1 | 38.6 | 0.00 | 1.83 | 0.15 | 94 | 983.8 |
| 20260504081523 | 3 | 267 | 14.5 | 30.6 | 0.00 | 1.78 | 0.10 | 96 | 977.4 |